Regional Weather Roundup
Issued by NWS

Home | Current Version | Previous Version | Text Only | Print | Product List | Glossary Off
Versions: 1 2 3 4 5 6 7 8 9 10 11 12 13 14 15 16 17 18 19 20 21 22 23 24 25 26 27 28 29 30 31 32 33 34 35 36 37 38 39 40 41 42 43 44 45 46 47 48 49 50

000
ASUS45 KABQ 302310
RWRNM
WEATHER ROUNDUP FOR NEW MEXICO
NATIONAL WEATHER SERVICE ALBUQUERQUE NM
400 PM MST FRI JAN 30 2015

NOTE: "FAIR" MEANS FEW OR NO CLOUDS BELOW 12,000 FEET AGL WITH NO
       SIGNIFICANT WEATHER OR OBSTRUCTIONS TO VISION.

      THIS PRODUCT IS RELEASED AS TWO VERSIONS.  ONE VERSION NEAR
      THE TOP OF THE HOUR CONTAINING PRELIMINARY DATA FROM ALBUQUERQUE
      AND OTHER STATIONS.  A FINAL VERSION WITH ADDITIONAL DATA IS
      ISSUED ABOUT 10 MINUTES AFTER THE HOUR.

NMZ501-503-504-510>518-310000-
NORTHWEST PLATEAU/NORTHCENTRAL MOUNTAINS

CITY           SKY/WX    TMP DP  RH WIND       PRES   REMARKS
FARMINGTON     LGT RAIN  34  32  92 E7        30.04S FOG     WCI  28
LOS ALAMOS     MIX PCPN  29  29 100 S6        30.13F WCI  23
SANTA FE       MIX PCPN  32  27  81 S10       30.12F WCI  24
TAOS           CLOUDY    28  25  86 CALM      30.12F
ANGEL FIRE     MIX PCPN  33  31  93 S3        30.07F

$$
NMZ402-403-502-505>509-310000-
WESTCENTRAL MOUNTAINS/SOUTHWEST MOUNTAINS

CITY           SKY/WX    TMP DP  RH WIND       PRES   REMARKS
GALLUP         MIX PCPN  35  31  85 NE9       29.99F WCI  28
GRANTS         CLOUDY    32  30  91 S15G22    30.05F WCI  22
SILVER CITY    LGT RAIN  39  39 100 E8        30.07S WCI  34

$$
NMZ407-409-411-412-310000-
SOUTHERN DESERTS

CITY           SKY/WX    TMP DP  RH WIND       PRES   REMARKS
LORDSBURG      LGT RAIN  43  41  93 SE18      30.00F
DEMING         LGT RAIN  43  41  93 E9        30.05F FOG
LAS CRUCES     CLOUDY    43  41  92 SE7       30.05S
HOLLOMAN AFB   LGT RAIN  44  43  97 N8        30.06F
ALAMOGORDO     CLOUDY    45  43  93 N6        30.08F
T OR C         LGT RAIN  39  38  96 N6        30.06F WCI  35

$$
NMZ519>523-310000-
CENTRAL VALLEYS/CENTRAL HIGHLANDS

CITY           SKY/WX    TMP DP  RH WIND       PRES   REMARKS
ALBUQUERQUE    CLOUDY    36  33  89 NW5       30.10F WCI  32
DOUBLE EAGLE   CLOUDY    30  30 100 N7        30.10F WCI  23
MORIARTY ARPT  MIX PCPN  31  29  92 SE6       30.15F WCI  25
CLINES CORNERS FOG       28  26  92 E10       30.10F VSB<1/4 WCI  19
BELEN          CLOUDY    34  34 100 NW7       30.09F FOG     WCI  28
SOCORRO        CLOUDY    37  37  99 N3        30.09F FOG

$$
NMZ524>526-539-540-310000-
SOUTHCENTRAL MOUNTAINS

CITY           SKY/WX    TMP DP  RH WIND       PRES   REMARKS
RUIDOSO        CLOUDY    32  32 100 SE9       30.13F WCI  24

$$
NMZ527>531-310000-
NORTHEAST HIGHLANDS/NORTHEAST PLAINS

CITY           SKY/WX    TMP DP  RH WIND       PRES   REMARKS
LAS VEGAS      CLOUDY    28  25  88 S9        30.13F WCI  19
RATON          CLOUDY    30  27  88 S6        30.13F WCI  24
CLAYTON        CLOUDY    35  32  88 S16       30.17F WCI  25

$$
NMZ532>537-310000-
EASTCENTRAL PLAINS

CITY           SKY/WX    TMP DP  RH WIND       PRES   REMARKS
TUCUMCARI      CLOUDY    38  34  85 S7        30.19F WCI  33
CANNON AFB     CLOUDY    35  31  83 SE10      30.21F WCI  28
CLOVIS AIRPORT CLOUDY    36  28  75 SE8       30.22F WCI  29

$$
NMZ028-029-538-310000-
SOUTHEAST PLAINS

CITY           SKY/WX    TMP DP  RH WIND       PRES   REMARKS
ROSWELL        CLOUDY    40  32  73 SE8       30.19F WCI  34
ARTESIA        DRIZZLE   41  34  75 SE7       30.22S
CARLSBAD       CLOUDY    43  33  68 E6        30.20F
HOBBS          CLOUDY    41  32  70 E10       30.21F


$$



USA.gov is the U.S. government's official web portal to all federal, state and local government web resources and services.